Current Version              Previous Version:    01  02  03  04  05  06  07  08  09  10  11  12  13  14  15  16  17  18  19  20  21  22  23  24  25  26  27  28  29  30  
   31  32  33  34  35  36  37  38  39  40  41  42  43  44  45  46  47  48  49  50  51  52  53  54  55  56  57  58  59  60  

[Printable]
668
ASUS44 KFWD 222310
RWRTX
NORTH TEXAS HOURLY WEATHER ROUNDUP
NATIONAL WEATHER SERVICE FORT WORTH TX
600 PM CDT WED OCT 22 2014

NOTE: "FAIR" INDICATES FEW OR NO CLOUDS BELOW 12,000 FEET WITH NO
SIGNIFICANT WEATHER AND/OR OBSTRUCTIONS TO VISIBILITY.

TXZ118-119-230000-
DALLAS/FORT WORTH METROPLEX

CITY           SKY/WX    TMP DP  RH WIND       PRES   REMARKS
DFW AIRPORT    MOCLDY    77  57  50 SE8       30.07S
DALLAS LOVE    MOCLDY    77  56  48 E9        30.07S
FTW MEACHAM    PTCLDY    79  58  48 SE10      30.07R
DAL-EXECUTIVE  CLEAR     77  56  48 E7        30.07S
FTW-ALLIANCE   CLOUDY    77  56  48 SE8       30.07S
FTW-NAS-JRB    MOCLDY    83  56  39 SE7       30.11S
FTW-SPINKS     CLEAR     79  57  47 E7        30.09S
ARLINGTON      CLEAR     79  55  43 E8        30.07S
GRAND PRAIRIE  CLEAR     79  57  47 MISG      30.09R
ADDISON        MOCLDY    77  55  47 SE6       30.08S
MESQUITE       PTCLDY    79  55  44 E6        30.08S
LANCASTER      CLEAR     77  53  43 SE6       30.08S
$$

TXZ091>094-102>105-117-120-121-131>134-230000-
NORTH CENTRAL TEXAS

CITY           SKY/WX    TMP DP  RH WIND       PRES   REMARKS
SHRMAN/DENISON PTCLDY    74  60  61 E3        30.10R
GAINESVILLE    MOCLDY    76  57  51 SE7       30.10S
BOWIE          MOCLDY    74  60  61 SE3       30.09R
BRIDGEPORT     MOCLDY    76  60  57 SE3       30.10R
DECATUR        MOCLDY    75  56  51 SE8       30.09R
DENTON         PTCLDY    77  57  50 SE8       30.07S
MCKINNEY       CLEAR     77  56  48 SE7       30.08S
GREENVILLE     MOCLDY    73  54  49 CALM      30.09S
ROCKWALL       CLEAR     76  57  51 SE3       30.08R
TERRELL        CLEAR     78  55  44 E3        30.09R
WAXAHACHIE     CLEAR     76  58  54 E3        30.09S
CLEBURNE       CLEAR     77  59  53 E8        30.09S
GRANBURY       PTCLDY    80  58  46 E7        30.08S
$$

TXZ083>090-098>101-113>116-127>130-139>142-154-155-230000-
WESTERN NORTH TEXAS

CITY           SKY/WX    TMP DP  RH WIND       PRES   REMARKS
WICHITA FALLS  CLOUDY    73  58  59 S7        30.08R
WF-KICKAPOO    CLOUDY    74  56  53 S6        30.10R
VERNON         CLOUDY    64  57  77 CALM      30.10F
ABILENE        CLOUDY    70  57  63 CALM      30.10S
ABILENE-DYESS  CLOUDY    69  58  68 E3        30.09F
BRECKENRIDGE   LGT RAIN  73  60  63 S3        30.08S
GRAHAM         CLOUDY    74  59  59 CALM      30.08S
MINERAL WELLS  MOCLDY    77  57  50 SE7       30.07R
STEPHENVILLE   PTCLDY    76  56  51 SE8       30.11S
COMANCHE       PTSUNNY   76  57  51 SE6       30.09R
BROWNWOOD      CLOUDY    75  54  46 S6        30.08R
COLEMAN        LGT RAIN  69  61  75 NW5       30.10R
BRADY          PTSUNNY   75  50  41 SE7       30.08S
$$

TXZ143>147-156>162-174-175-230000-
CENTRAL TEXAS

CITY           SKY/WX    TMP DP  RH WIND       PRES   REMARKS
WACO           PTCLDY    77  58  51 E5        30.06S
WACO-TSTC      CLEAR     77  59  53 CALM      30.06S
WACO-MCGREGOR  CLEAR     77  55  47 E6        30.08R
HILLSBORO      CLEAR     77  56  48 E7        30.08R
CORSICANA      CLEAR     76  53  44 E6        30.08S
MEXIA          CLEAR     77  57  49 NE3       30.06S
HEARNE         CLEAR     77  58  51 NE5       30.06S HAZE
CAMERON        CLEAR     79  60  52 NE3       30.05S
TEMPLE         PTCLDY    77  55  47 E3        30.06R
KILLEEN        PTCLDY    79  57  47 E8        30.06S
KILLEEN-SKYLRK PTCLDY    77  57  50 E6        30.06S
FORT HOOD      PTCLDY    79  59  50 E6        30.06S
GATESVILLE     MOCLDY    77  59  53 CALM      30.08F
HAMILTON       MOCLDY    78  56  46 SE12      30.09R
LAMPASAS       PTSUNNY   77  60  55 SE3       30.07R
$$

TXZ095>097-106>112-122>126-135>138-148>153-164>167-230000-
EAST TEXAS

CITY           SKY/WX    TMP DP  RH WIND       PRES   REMARKS
PARIS          CLEAR     73  52  46 E8        30.11R
SULPHUR SPRNGS CLEAR     76  51  40 SE7       30.11S
MOUNT PLEASANT CLEAR     74  51  44 NE6       30.11R
MINEOLA        CLEAR     75  52  43 CALM      30.09S
TYLER          CLEAR     76  53  44 NE7       30.08R
LONGVIEW       CLEAR     74  52  46 NE8       30.08S
MARSHALL       CLEAR     76  53  43 CALM      30.11S
ATHENS         CLEAR     75  54  46 CALM      30.07R
PALESTINE      CLEAR     76  57  51 E3        30.08S
JACKSONVILLE   CLEAR     75  53  46 CALM      30.10S
HENDERSON      CLEAR     75  51  43 NE5       30.09S
NACOGDOCHES    CLEAR     75  54  46 E6        30.08R
LUFKIN         CLEAR     78  55  44 NE6       30.06S
$$

SUPPLEMENTAL OBSERVATIONS (CENTRAL)

CITY           SKY/WX    TMP DP  RH WIND       PRES   REMARKS
CADDO GRASSLND   N/A     73  54  49 E1          N/A
PAT MAYSE LAKE   N/A     75  55  50 E3          N/A
MCGREGOR         N/A     79  59  50 E6          N/A
$$

SUPPLEMENTAL OBSERVATIONS (WEST)

CITY           SKY/WX    TMP DP  RH WIND       PRES   REMARKS
MILLERS CREEK    N/A     68  52  56 CALM        N/A
LBJ GRASSLAND    N/A     75  55  50 SE6         N/A
HAMBY            N/A     70  55  60 NW2         N/A
IVIE RESERVOIR   N/A     70  57  64 N5          N/A
COLORADO BEND    N/A     75  52  43 SW3G12      N/A
$$

SUPPLEMENTAL OBSERVATIONS (EAST)

CITY           SKY/WX    TMP DP  RH WIND       PRES   REMARKS
CLARKSVILLE      N/A     73  52  46 E3          N/A
TEXARKANA        N/A     73  50  43 E2G10       N/A
GILMER           N/A     75  54  46 E1G10       N/A
HENDERSON        N/A     75  52  43 NE5         N/A
LUFKIN           N/A     77  55  47 MISG        N/A
$$

SUPPLEMENTAL OBSERVATIONS ARE A COLLECTION OF AUTOMATED INSTRUMENTS
THAT ARE MAINTAINED BY A VARIETY OF FEDERAL AND STATE AGENCIES.
CERTAIN ELEMENTS...SUCH AS HUMIDITY VALUES AND SUSTAINED WIND
SPEEDS...MAY BE APPROXIMATED.